CAPE
25 32 30 30 31 36 35 32 30 33 38 45 34 51 60 52 62 1 0 2 7 23 9 0 12 8 0 11 10 41 126 8 6 1 0 0 0 0 0 0 0 0 0 0 0
34 33 34 31 26 28 26 19 24 31 36 36 39 41 47 57 5 0 2 54 94 75 11 0 0 0 0 4 3 39 44 16 0 0 0 0 0 0 0 0 0 0 0 3 0
36 32 27 29 29 28 22 18 26 32 31 24 26 32 30 2 0 0 1 13 99 0 19 0 0 0 3 1 34 75 79 0 2 4 4 18 0 0 0 0 0 0 0 0 0
38 29 24 29 24 18 18 17 20 24 19 23 26 24 13 0 0 0 0 15 66 53 6 0 0 0 5 29 0 16 32 38 10 8 7 0 15 0 0 0 0 0 0 1 0
29 23 26 26 20 15 15 9 8 12 11 12 9 1 0 0 0 0 16 16 0 0 0 0 0 0 0 0 9 14 1 2 7 8 5 12 41 0 0 0 0 0 0 3 7
26 24 20 20 16 14 10 1 2 9 6 1 0 0 0 0 0 0 0 0 0 0 0 0 0 0 6 0 0 0 0 3 5 1 25 52 42 23 4 8 0 0 0 0 0
27 24 17 17 15 13 0 0 0 0 0 0 0 0 0 0 0 0 0 5 0 0 0 3 8 43 56 21 0 1 0 0 14 1 6 52 34 6 0 9 2 0 3 1 0
22 21 19 13 14 8 0 0 0 0 0 0 0 0 0 0 0 1 2 0 0 0 14 2 41 41 25 14 9 0 9 9 0 1 0 43 0 7 0 1 0 5 0 25 8
16 20 19 12 15 3 0 0 0 0 0 0 0 0 0 0 0 0 0 0 0 0 0 69 99 24 44 47 29 7 2 12 0 0 3 5 1 0 0 0 0 0 0 6 18
17 17 13 8 12 1 0 0 0 0 0 0 0 0 0 0 0 0 0 0 0 0 22 89 32 44 58 49 2 0 2 0 0 0 27 16 12 0 1 11 4 4 0 0 8
16 14 10 3 6 0 0 0 0 0 0 0 0 0 0 0 0 0 0 0 0 0 3 0 11 0 0 0 0 7 0 0 0 0 20 4 11 33 0 8 5 2 1 0 0
12 20 6 0 1 0 0 0 0 0 0 0 0 0 0 0 0 0 0 0 0 0 0 0 0 0 0 2 20 7 7 0 0 17 15 6 0 14 11 7 1 6 0 0 0
10 16 0 0 0 0 0 0 0 0 0 0 0 0 0 0 0 0 0 0 0 0 0 0 0 0 1 0 8 2 8 0 2 9 1 50 4 29 24 9 23 4 0 0 0
13 11 0 0 0 0 0 0 0 0 0 0 0 0 0 0 0 0 0 0 0 0 0 0 0 0 1 0 1 2 0 0 0 7 3 12 6 0 1 5 25 0 0 0 0
10 2 0 0 0 0 0 0 0 0 0 0 0 0 0 0 0 0 0 0 0 0 0 0 0 0 0 0 0 0 0 0 1 0 3 1 32 0 0 5 13 0 0 0 0
6 0 0 0 0 0 0 0 0 0 0 0 0 0 0 0 0 0 0 0 0 0 0 0 0 1 0 2 0 2 0 21 12 2 9 1 6 14 16 0 0 0 0 0 0
10 0 0 0 0 0 0 0 0 0 0 0 0 0 0 0 0 0 0 0 0 0 0 0 0 0 6 1 3 8 1 2 14 17 3 0 18 1 2 4 0 0 0 0 0
5 0 0 0 0 0 0 0 0 0 0 0 0 0 0 0 0 0 0 0 0 2 0 0 0 0 0 2 2 2 6 6 33 0 0 18 8 3 7 6 1 1 0 0 0
0 0 0 0 0 0 0 0 0 0 1 2 0 0 0 0 0 0 0 0 0 0 0 0 0 0 1 10 4 17 0 2 0 44 51 4 2 0 2 1 2 0 0 0 0
0 0 0 0 0 0 0 0 0 0 0 0 0 0 0 0 0 0 0 0 0 0 0 1 0 0 0 0 7 5 37 0 1 1 37 0 0 0 0 1 1 1 1 1 0
0 0 0 0 0 0 0 0 0 0 0 0 0 1 1 0 0 0 0 0 0 0 0 0 0 0 0 1 0 0 0 0 1 1 2 0 0 5 2 2 2 3 2 1 0
0 0 0 0 0 0 0 0 0 0 0 0 0 0 4 1 0 0 0 0 0 0 0 0 2 0 2 6 0 0 0 2 0 0 0 0 0 4 3 3 2 0 0 0 0
0 0 0 0 0 0 0 0 0 0 0 0 0 1 1 0 0 0 0 0 0 0 0 1 0 0 0 0 0 0 0 0 0 1 0 0 0 2 0 1 1 0 0 0 0
0 0 0 0 0 0 0 0 0 0 0 0 0 0 0 0 0 0 0 0 0 0 10 0 0 0 0 0 0 0 0 0 0 0 0 0 0 0 0 0 1 0 0 0 0
0 0 0 0 0 0 0 0 0 1 0 0 0 0 0 0 0 0 0 0 0 0 0 0 0 0 0 0 0 0 0 0 0 0 0 0 0 0 1 1 2 0 0 0 0
0 0 0 0 0 0 0 0 2 0 0 0 0 0 0 0 0 0 0 0 0 0 0 0 0 0 0 0 0 0 0 0 0 0 0 1 0 1 1 1 0 0 0 0 0
2 4 8 0 0 0 0 0 1 0 0 0 0 0 0 0 0 0 0 0 0 0 0 0 0 0 0 0 1 0 0 0 0 0 0 0 0 1 0 1 2 0 0 0 0
CIN
-0 0 0 0 0 0 0 0 -0 -0 -0 0 -0 -0 -0 -0 -1 -3 0 -1 -0 0 -16 -2 -3 -25 -0 0 0 -2 0 -11 -1 -1 0 0 0 0 0 0 0 0 0 0 0
-0 -0 0 0 0 -0 -0 0 0 0 -0 0 -0 -0 -0 -0 -4 0 -18 0 -2 -2 -0 0 0 0 -0 -0 -1 -2 -2 -1 0 0 0 -2 0 0 0 0 0 0 0 -159 0
-0 -0 -0 0 0 0 0 0 -0 0 -0 0 -0 -0 0 -1 0 0 -1 -5 -16 0 -6 0 0 0 -0 -0 -22 -0 -0 0 -2 -1 -8 -6 0 0 0 0 0 0 0 0 0
0 0 0 0 0 0 -0 0 0 0 -0 0 -0 -0 -1 0 0 0 0 -10 -2 -11 -21 0 0 0 0 0 0 -54 -1 -1 -3 -38 -30 -0 -9 -0 0 0 0 0 0 -102 -11
0 0 0 0 0 0 0 0 0 0 0 -0 -0 -0 0 0 0 0 -25 -14 0 0 0 0 0 0 0 0 0 0 0 -0 -23 -19 -51 -33 -12 0 0 0 0 0 0 -139 -137
0 0 0 0 0 0 0 0 0 0 -0 -0 0 0 0 0 0 0 0 0 0 0 0 0 0 0 -3 0 -0 0 0 0 0 -11 -7 -0 -0 -2 -5 -51 0 0 0 0 0
0 0 0 0 0 0 -0 0 0 0 0 0 0 0 0 0 0 0 0 -62 0 0 0 -100 -54 -26 -6 -0 0 0 0 -0 0 0 -0 -0 -0 -0 -0 -51 -104 0 -99 -75 0
0 0 0 0 0 0 0 0 0 0 0 0 0 0 0 0 0 -13 -69 0 0 0 -118 -66 -88 -26 -8 -6 -1 0 -1 0 0 -0 0 0 0 -1 -6 -2 0 -90 0 -134 -113
0 0 0 0 0 0 0 0 0 0 0 0 0 0 0 0 0 0 0 0 0 0 0 -51 -71 -12 -4 0 -0 -0 -0 0 0 0 -0 -0 0 0 0 0 0 0 0 -136 -139
0 0 0 0 0 0 0 0 0 0 0 0 0 0 0 0 0 0 0 0 0 0 -58 -43 -24 -13 -0 -0 -5 0 -0 0 0 0 0 0 0 0 -4 -10 -13 -62 0 0 -166
0 0 0 0 -0 0 0 0 0 0 0 0 0 0 0 0 0 0 0 0 0 0 -17 -0 -5 -0 0 -14 -20 -10 0 0 0 0 -0 0 -1 0 0 -14 -4 -22 -99 0 0
0 0 0 0 -0 0 0 0 0 0 0 0 0 0 0 0 0 0 0 0 0 0 0 0 0 0 0 -0 -13 -0 -0 -2 0 -6 -1 0 -0 -3 -3 -4 -7 -0 0 0 0
0 0 0 0 0 0 0 0 0 0 0 0 0 0 0 0 0 0 0 0 0 0 0 0 0 0 0 -0 0 -0 0 0 -1 -35 -0 -1 -0 -1 -1 -4 -14 -9 0 0 0
0 0 0 0 0 0 0 0 0 0 0 0 0 0 0 0 0 0 0 0 0 0 0 0 0 0 -0 -0 0 -0 0 0 0 -0 -2 -14 -28 0 -0 -1 -0 -0 -3 -2 0
0 0 0 0 0 0 0 0 0 0 0 0 0 0 0 0 0 0 0 0 0 0 0 0 0 0 0 0 0 0 0 0 -0 0 0 -8 -0 0 -1 -25 -4 0 0 0 0
0 0 0 0 0 0 0 0 0 0 0 0 0 0 0 0 0 0 0 0 0 0 0 0 0 0 0 0 0 0 0 -1 -5 -11 -2 -2 -2 -16 -5 0 0 0 0 0 0
0 0 0 0 0 0 0 0 0 0 0 0 0 0 0 0 0 0 0 0 -1 -0 0 0 0 0 -1 0 -0 -0 -27 -5 -2 -5 -5 0 -5 0 0 0 0 0 0 0 0
0 0 0 0 0 0 0 0 0 0 0 0 0 0 0 0 0 0 0 0 0 -1 0 0 0 0 0 0 0 0 -9 -6 -3 -0 0 -6 -10 0 0 0 0 0 0 0 0
0 0 0 0 0 0 0 0 0 0 -0 -1 0 0 0 0 0 0 0 0 0 0 0 0 0 0 -0 0 0 -0 -0 -2 0 -22 -5 -9 -0 0 0 0 0 0 0 0 0
0 0 0 0 0 0 0 0 0 0 -3 0 0 0 -0 0 0 0 0 0 0 0 0 0 -1 0 0 0 0 0 -20 -2 -0 -16 -18 0 0 0 0 0 0 0 0 0 0
0 0 0 0 0 0 0 0 0 0 0 0 0 -3 -2 0 -1 0 0 0 0 0 0 -0 0 0 0 0 0 0 0 0 0 -3 0 0 0 0 0 0 0 0 0 0 -0
0 0 0 0 0 0 0 0 0 0 0 0 0 0 -2 -2 0 0 0 0 0 0 0 0 -0 -0 -0 0 0 0 0 0 0 0 0 0 0 0 0 0 0 0 0 0 0
0 0 0 0 0 0 0 0 0 0 0 0 0 -7 -6 0 0 0 0 0 0 0 -2 0 0 0 0 0 0 0 0 -0 0 0 0 0 0 0 0 0 0 0 0 0 0
0 0 0 0 0 0 0 0 0 0 0 0 0 0 -3 0 0 0 0 0 0 0 -0 0 0 0 0 0 -0 0 0 0 0 0 0 0 0 0 0 0 0 0 0 0 0
0 0 0 0 0 0 0 0 0 -1 0 0 0 0 -0 0 0 0 0 0 0 0 0 0 0 0 0 0 0 0 0 0 0 0 0 0 0 0 0 0 0 0 0 0 0
0 0 0 0 0 0 0 0 -0 -0 0 0 0 0 0 0 0 -0 0 0 0 0 0 0 0 0 0 -0 0 0 0 0 0 0 0 0 0 0 0 0 0 0 0 0 0
0 0 0 0 0 0 0 0 -1 0 0 0 0 0 0 0 0 0 0 0 0 0 0 0 0 0 0 0 0 0 0 0 0 0 0 0 0 0 0 0 0 0 0 0 0
Wind_Speed
22 23 23 23 23 24 23 22 21 20 20 20 19 18 17 16 14 4 12 13 18 17 11 10 15 15 11 10 12 12 17 22 35 35 19 9 17 18 20 12 9 8 7 5 7
23 24 25 25 24 25 24 22 21 21 21 20 19 17 16 13 2 8 16 12 10 6 3 9 14 14 7 9 8 15 16 29 35 29 17 18 15 15 10 11 10 4 1 3 8
24 24 25 26 26 25 23 22 22 22 20 18 15 14 12 3 3 7 11 9 14 3 6 4 3 12 9 13 9 14 27 33 28 17 23 17 27 13 16 18 17 20 14 12 9
25 26 26 27 27 25 23 23 22 20 18 16 14 10 6 4 3 4 11 8 2 7 5 2 1 1 7 9 13 17 23 27 22 31 16 29 19 22 21 17 16 25 23 16 14
25 27 27 28 27 25 24 24 21 19 17 16 13 4 4 1 8 8 11 10 5 4 5 3 5 5 9 8 12 16 19 19 27 19 23 12 14 24 22 18 12 16 17 17 15
27 28 29 29 26 26 25 23 21 20 18 14 8 4 4 3 6 7 8 7 7 6 5 7 7 8 10 13 12 12 21 23 18 19 19 19 20 8 17 17 12 17 19 19 19
28 28 29 28 26 26 25 24 23 22 16 11 8 4 3 11 5 3 4 6 6 8 7 7 10 6 3 9 15 15 21 19 23 15 20 15 13 16 18 15 15 18 17 17 18
29 29 29 28 26 24 24 25 24 18 13 9 4 4 6 6 1 7 7 8 8 10 9 10 9 11 10 7 9 10 11 17 19 17 13 13 17 19 26 19 17 18 16 16 18
29 30 29 27 24 23 22 27 18 17 14 5 3 5 8 3 5 11 5 7 9 7 5 7 5 8 6 12 11 9 13 16 17 15 8 17 8 18 5 13 21 20 15 15 14
30 30 30 26 22 21 19 21 13 8 7 2 4 3 3 7 9 14 8 8 8 6 3 5 6 6 9 11 11 13 11 12 18 18 17 16 19 13 11 9 12 16 14 14 16
30 31 30 24 21 16 8 5 8 7 8 2 3 4 8 8 12 5 8 6 4 1 4 8 4 10 20 15 15 14 17 20 12 15 19 19 18 18 14 10 9 14 15 14 14
30 31 27 23 21 9 4 5 1 3 7 3 6 7 7 7 12 10 10 7 5 12 5 4 16 20 15 14 14 14 20 18 11 12 14 17 23 15 19 12 9 10 14 15 14
31 30 25 23 12 5 1 1 2 5 1 7 4 4 7 10 8 8 10 6 7 14 11 11 10 15 12 13 14 22 23 20 10 8 18 6 18 12 16 16 13 6 8 11 16
32 29 22 22 5 3 4 5 2 4 3 6 6 3 6 17 5 19 7 4 9 8 9 10 5 6 9 16 15 18 23 18 14 11 15 15 5 17 17 16 19 19 9 11 16
31 30 24 7 3 4 4 1 5 4 5 16 7 3 16 5 11 4 10 4 10 18 4 9 12 14 11 12 9 10 16 17 12 16 4 15 10 2 17 19 18 21 23 18 9
31 28 19 4 2 3 5 5 4 5 6 8 6 19 20 5 7 7 6 4 13 9 15 17 11 7 7 15 17 9 8 9 4 6 8 9 16 4 2 15 20 21 23 19 10
31 24 7 3 7 7 2 3 6 7 9 11 13 20 17 15 14 8 10 10 11 14 21 12 3 3 3 16 3 17 11 6 7 8 6 16 12 3 12 18 7 8 5 13 13
30 11 8 1 7 1 3 7 11 4 5 12 11 17 6 13 13 12 8 7 3 12 14 7 9 8 9 4 5 5 7 4 6 8 10 12 11 5 10 14 18 18 16 15 18
19 5 5 11 10 3 7 8 3 3 7 10 13 4 5 7 8 9 6 3 8 16 11 7 7 5 15 6 3 7 6 4 3 2 7 10 7 11 13 18 20 19 17 17 16
3 4 7 14 8 7 7 4 2 3 6 3 4 4 6 11 11 7 6 4 11 13 16 5 9 5 13 10 6 6 3 2 3 6 7 7 8 5 13 16 17 18 18 14 16
5 4 6 14 5 6 5 3 4 6 6 3 3 5 6 12 11 5 6 10 13 13 13 5 3 10 7 11 11 9 7 7 5 2 2 6 5 7 10 12 14 14 14 14 14
3 4 5 6 7 3 3 5 8 5 4 3 3 4 3 14 5 4 5 5 15 17 15 1 4 6 4 9 13 19 9 5 3 5 4 4 4 10 10 11 11 11 11 13 14
2 4 4 5 5 3 5 4 3 4 5 3 3 2 3 6 7 5 5 8 9 11 14 9 5 7 8 2 9 8 18 13 8 4 5 3 5 10 11 10 13 12 15 14 15
3 5 5 5 2 3 4 3 6 6 5 3 4 3 8 6 5 7 7 8 18 7 20 5 6 4 4 3 5 9 21 22 4 6 4 7 7 13 14 13 13 15 13 11 12
4 2 1 6 3 2 1 3 8 6 3 3 4 3 9 5 6 3 7 14 10 6 7 4 2 4 9 10 9 15 15 19 21 13 6 6 8 13 13 13 11 10 12 14 15
1 2 2 4 4 6 2 3 5 5 4 5 1 15 4 4 7 18 15 3 5 9 5 6 2 5 7 7 6 9 17 14 15 15 12 7 6 9 10 10 6 11 15 15 16
2 2 2 4 3 2 3 3 8 11 6 6 7 6 8 6 12 20 11 10 5 2 5 3 0 2 1 5 7 6 12 8 5 10 4 8 6 13 13 11 8 9 14 15 15
Wind_Direction
343 340 337 335 334 333 328 324 323 321 317 315 311 309 304 310 318 285 271 252 270 261 4 301 263 271 248 246 230 242 216 234 223 227 221 184 206 206 214 210 192 202 175 198 169
339 338 337 335 333 330 327 324 323 320 319 315 317 317 312 318 296 276 257 291 6 12 236 39 356 330 273 232 235 221 231 222 229 234 226 226 204 179 174 197 205 191 257 200 160
339 339 336 333 331 329 326 323 320 322 319 323 322 315 310 31 339 251 315 348 132 63 261 144 127 334 274 267 227 231 229 238 235 245 220 239 218 181 196 215 208 204 195 184 179
341 339 337 333 331 328 326 321 321 321 323 320 311 321 39 89 296 256 319 330 223 217 213 258 313 273 304 277 299 263 241 245 239 239 240 224 224 215 199 207 183 207 199 175 181
342 338 336 335 331 327 325 323 322 321 321 319 311 302 96 76 250 260 302 312 337 174 207 222 242 253 241 272 300 282 280 270 249 241 252 260 248 229 224 210 195 199 186 186 189
342 340 338 335 331 328 326 321 318 316 314 310 326 134 111 263 231 243 262 298 257 206 208 187 212 215 252 262 254 288 290 288 297 265 252 236 236 245 218 185 186 177 187 191 193
342 340 339 335 332 331 327 320 318 318 310 298 260 146 168 245 228 285 296 248 251 226 226 224 224 203 233 278 261 256 273 274 257 266 237 215 242 236 263 192 180 184 192 198 201
341 340 338 335 333 334 327 321 320 318 311 279 303 102 244 257 267 299 276 280 265 243 218 243 196 220 237 255 278 263 261 261 254 234 251 233 234 222 223 235 197 188 194 194 212
340 339 337 336 333 333 327 319 316 324 325 273 98 115 268 299 8 280 268 254 268 281 215 238 166 232 244 236 255 225 255 251 263 229 230 206 277 215 206 231 196 193 193 194 202
341 339 337 335 333 332 329 322 316 351 338 106 77 37 322 315 301 294 274 274 256 274 304 208 238 231 225 218 230 236 232 248 256 228 227 223 235 236 188 234 223 195 187 195 198
342 339 337 335 336 336 341 4 13 351 31 257 291 239 285 282 298 287 291 285 261 186 233 258 227 230 233 225 237 258 265 245 277 253 213 234 235 220 215 212 231 204 194 190 196
343 341 339 335 340 356 46 60 257 244 320 279 244 251 264 278 316 318 347 322 313 281 276 349 243 249 249 260 249 261 252 251 259 255 230 221 235 222 209 209 220 230 208 190 184
342 345 342 336 345 43 82 55 311 101 258 299 255 270 306 340 306 303 342 294 271 287 283 222 257 295 238 260 249 260 232 225 230 305 204 207 242 221 213 203 184 236 257 211 184
342 346 347 339 42 336 329 313 122 83 51 350 343 314 349 327 297 316 321 300 309 295 305 273 266 235 241 255 261 240 205 208 212 252 203 184 246 209 208 210 207 206 271 253 218
344 347 347 36 264 341 315 195 111 62 40 316 313 299 326 321 292 292 337 311 293 296 272 251 287 278 271 261 261 232 185 200 194 229 316 193 253 119 190 205 200 197 204 245 254
344 345 346 357 354 251 323 125 59 41 306 327 319 333 330 302 320 297 315 338 280 287 266 268 266 257 245 278 239 220 136 156 150 226 245 236 192 160 157 236 203 190 193 213 281
343 341 359 334 317 325 131 50 37 75 355 328 324 328 322 329 326 329 324 344 2 331 342 332 342 282 300 307 181 181 147 157 181 201 225 182 192 49 357 4 247 182 115 39 31
341 354 323 232 318 14 71 51 61 316 288 299 312 313 314 5 324 327 321 338 326 337 317 346 321 358 343 276 323 270 154 156 146 184 208 186 179 86 32 29 51 70 84 61 40
351 339 357 343 341 51 66 50 183 292 298 310 320 332 314 330 317 346 324 277 358 350 350 319 282 306 316 280 224 132 226 247 71 50 198 149 103 62 19 35 35 40 46 53 44
23 346 349 339 342 43 63 98 271 263 308 314 327 16 309 330 339 359 314 247 343 338 347 315 291 305 334 7 46 301 95 182 190 205 185 140 123 63 6 18 31 23 30 32 40
35 41 305 339 41 40 79 268 298 287 353 333 290 299 276 321 320 297 287 292 3 320 330 304 285 308 334 27 354 359 26 329 291 230 328 128 99 49 32 16 31 17 25 22 35
26 39 318 356 45 29 11 300 308 284 341 307 284 250 282 324 296 294 293 271 336 333 337 340 291 301 1 112 103 75 351 320 319 359 79 58 92 27 39 25 23 13 18 24 32
26 291 319 55 54 8 309 307 288 306 323 315 287 268 338 301 320 254 303 282 323 331 350 336 345 312 345 22 38 27 3 335 228 268 35 75 132 25 22 16 27 8 17 16 17
45 0 329 31 96 105 330 277 325 302 286 294 260 302 321 293 229 287 301 304 322 310 351 7 11 44 102 179 296 1 1 5 338 45 70 49 84 8 10 4 1 12 8 12 8
25 287 139 310 332 348 225 278 331 343 296 314 316 296 329 296 305 265 295 321 311 318 358 68 132 96 139 156 75 48 21 16 36 5 54 81 74 6 356 346 354 3 2 14 6
13 17 331 277 294 325 305 282 315 293 239 290 244 317 301 215 212 303 310 296 261 323 6 352 303 165 207 219 87 61 36 31 36 13 36 53 73 8 339 339 38 10 11 8 3
197 248 242 282 292 332 263 270 311 316 268 232 282 301 306 273 298 287 278 244 226 33 303 53 61 45 202 259 284 5 5 44 74 34 352 29 318 335 339 343 346 9 9 357 350